Station SDIA2 - South Douglas, AK Image indicating link to RSS feed of recent meteorological observations for station SDIA2


Conditions at SDIA2 as of
(9:26 am AKDT)
1726 GMT on 04/15/2024:
     

Click on the graph icon in the table below to see a time series plot of the last five days of that observation.

5-day plot - Wind Direction Wind Direction (WDIR): NW ( 320 deg true )
5-day plot - Wind Speed Wind Speed (WSPD): 5.1 kts
5-day plot - Wind Gust Wind Gust (GST): 5.1 kts
5-day plot - Atmospheric Pressure Atmospheric Pressure (PRES):30.32 in
5-day plot - Air Temperature Air Temperature (ATMP): 39.0 °F
5-day plot - Dew Point Dew Point (DEWP): 32.0 °F
5-day plot - Wind Chill Wind Chill (CHILL): 34.7 °F
5-day plot - Wind Speed at 10 Meters Wind Speed at 10 meters (WSPD10M): 5.8 kts
5-day plot - Wind Speed at 20 Meters Wind Speed at 20 meters (WSPD20M): 7.8 kts
5-day plot -  Wind Speed, Wind Gust and Atmospheric Pressure Combined plot of Wind Speed, Gust, and Air Pressure
Supplemental Measurements
Previous observations
TIME
(AKDT)
5-day plot - Wind Direction
WDIR
 
5-day plot - Wind Speed
WSPD
kts
5-day plot - Wind Gust
GST
kts
5-day plot - Wave Height
WVHT
ft
5-day plot - Dominant Wave Period
DPD
sec
5-day plot - Average Wave Period
APD
sec
5-day plot - Mean Wave Direction
MWD
 
5-day plot - Atmospheric Pressure
PRES
in
5-day plot - Pressure Tendency
PTDY
in
5-day plot - Air Temperature
ATMP
°F
5-day plot - Water Temperature
WTMP
°F
5-day plot - Dew Point
DEWP
°F
5-day plot - Salinity
SAL
psu
5-day plot - Visibility
VIS
nmi
5-day plot - Tide (above MLLW)
TIDE
ft
2024-04-15 09:06 am NW 7.0 8.0----30.31- 37.9- 32.0---
2024-04-15 08:46 am N 5.1 8.0----30.31- 37.0- 32.0---
2024-04-15 08:26 amNNW 6.0 7.0----30.30- 36.0- 30.9---
2024-04-15 08:06 am NW 8.0 8.9----30.29- 35.1- 30.9---
2024-04-15 07:46 am NW 5.1 5.1----30.29- 36.0- 30.9---
2024-04-15 07:26 am NW 6.0 6.0----30.29- 34.0- 30.9---
2024-04-15 07:06 am NW 4.1 4.1----30.28- 32.0- 30.0---
2024-04-15 06:46 am- 0.0 1.9----30.27- 32.0- 30.0---
2024-04-15 06:26 am- 0.0 1.0----30.27- 32.0- 30.0---
2024-04-15 06:06 amWNW 2.9 4.1----30.25- 32.0- 30.0---
2024-04-15 05:46 amWNW 4.1 4.1----30.24- 32.0- 30.0---
2024-04-15 05:26 amWNW 4.1 4.1----30.24- 33.1- 30.0---
2024-04-15 05:06 amWNW 1.9 4.1----30.23- 32.0- 30.0---
2024-04-15 04:46 am- 0.0 4.1----30.22- 32.0- 28.9---
2024-04-15 04:26 am W 2.9 2.9----30.22- 32.0- 30.0---
2024-04-15 04:06 am- 0.0 2.9----30.21- 33.1- 30.0---
2024-04-15 03:46 amWNW 4.1 4.1----30.20- 33.1- 30.0---
2024-04-15 03:26 am W 1.9 1.9----30.19- 32.0- 30.0---
2024-04-15 03:06 am W 1.9 1.9----30.18- 33.1- 30.0---
2024-04-15 02:46 am- 0.0 1.9----30.18- 33.1- 30.0---
2024-04-15 02:26 am- 0.0 1.9----30.17- 34.0- 30.0---
2024-04-15 02:06 am- 0.0 1.0----30.16- 33.1- 30.0---
2024-04-15 01:46 am W 1.9 2.9----30.15- 34.0- 30.9---
2024-04-15 01:26 am- 0.0 1.0----30.14- 34.0- 30.9---
2024-04-15 01:06 amNNW 4.1 4.1----30.14- 34.0- 30.9---
2024-04-15 12:46 amWNW 4.1 4.1----30.13- 34.0- 30.9---
2024-04-15 12:26 amWNW 2.9 4.1----30.12- 34.0- 30.9---
2024-04-15 12:06 am N 4.1 4.1----30.12- 35.1- 32.0---
2024-04-14 11:46 pmWNW 4.1 4.1----30.11- 35.1- 30.9---
2024-04-14 11:26 pm W 1.9 1.9----30.11- 35.1- 30.9---
2024-04-14 11:06 pmWNW 1.9 2.9----30.10- 35.1- 30.9---
2024-04-14 10:46 pm W 1.9 4.1----30.09- 36.0- 30.9---
2024-04-14 10:26 pm W 1.9 2.9----30.09- 36.0- 32.0---
2024-04-14 10:06 pm W 4.1 4.1----30.08- 36.0- 32.0---
2024-04-14 09:46 pmWNW 4.1 5.1----30.07- 37.0- 32.0---
2024-04-14 09:06 pmWNW 4.1 4.1----30.06- 37.0- 32.0---
2024-04-14 08:46 pm W 5.1 5.1----30.06- 37.9- 32.0---
2024-04-14 08:26 pm W 5.1 6.0----30.05- 37.9- 32.0---
2024-04-14 08:06 pmWNW 6.0 6.0----30.04- 37.9- 33.1---
2024-04-14 07:46 pm W 4.1 5.1----30.03- 39.9- 33.1---
2024-04-14 07:26 pm W 5.1 6.0----30.02- 39.9- 33.1---
2024-04-14 07:06 pm W 4.1 5.1----30.02- 42.1- 33.1---
2024-04-14 06:46 pmWNW 6.0 6.0----30.01- 43.0- 33.1---
2024-04-14 06:26 pm W 4.1 6.0----30.01- 44.1- 34.0---
2024-04-14 06:06 pm NW 6.0 8.0----30.01- 44.1- 32.0---
2024-04-14 05:46 pmNNW 9.9 11.1----30.01- 43.0- 33.1---
2024-04-14 05:26 pmNNW 8.0 8.0----30.01- 43.0- 33.1---
2024-04-14 05:06 pmNNW 8.9 8.9----30.00- 42.1- 34.0---
2024-04-14 04:46 pmNNW 8.9 11.1----30.00- 42.1- 34.0---
2024-04-14 04:26 pmNNW 9.9 12.0----30.00- 42.1- 34.0---
2024-04-14 04:06 pmNNW 14.0 15.0----29.99- 42.1- 34.0---
2024-04-14 03:46 pmNNW 9.9 11.1----29.99- 42.1- 33.1---
2024-04-14 03:26 pmNNW 8.9 8.9----29.99- 42.1- 34.0---
2024-04-14 03:06 pmNNW 4.1 4.1----29.99- 41.0- 34.0---
2024-04-14 02:46 pmNNW 4.1 4.1----30.00- 41.0- 34.0---
2024-04-14 02:26 pmNNW 5.1 8.9----29.99- 41.0- 34.0---
2024-04-14 02:06 pm- 0.0 1.0----30.00- 39.9- 34.0---
2024-04-14 01:46 pm- 0.0 1.9----30.00- 39.9- 35.1---
2024-04-14 01:26 pm W 5.1 8.0----30.00- 39.0- 35.1---
2024-04-14 01:06 pmNNW 9.9 11.1----29.99- 37.9- 34.0---
2024-04-14 12:46 pm E 2.9 4.1----29.98- 39.9- 34.0---
2024-04-14 12:26 pmESE 2.9 2.9----29.98- 39.9- 34.0---
2024-04-14 12:06 pmESE 4.1 4.1----29.98- 39.0- 34.0---
2024-04-14 11:46 amESE 4.1 4.1----29.98- 37.9- 35.1---
2024-04-14 11:26 am SE 4.1 4.1----29.98- 37.9- 35.1---
2024-04-14 11:06 amESE 2.9 2.9----29.98- 37.0- 35.1---
2024-04-14 10:46 amESE 2.9 2.9----29.98- 36.0- 34.0---
2024-04-14 10:26 am SE 2.9 2.9----29.97- 36.0- 34.0---
2024-04-14 10:06 am S 1.9 2.9----29.97- 36.0- 34.0---